Location: Chinna Viriv?da
(16.5281°N, 81.0493°E)
Time: 15:28:13
(UTC+00:00)

Cosmos 2322 Rocket - Pass Details

Date: 14 April 2026
Orbit: 832 x 849 km, 71.0° (Epoch: 11 May)

Event Time Altitude Azimuth Distance (km) Brightness Sun altitude
Rises 23:34:21 0° 341° (NNW) 3,383 5.3 -11.7°
Reaches altitude 10° 23:36:48 10° 340° (NNW) 2,451 4.6 -11.2°
Maximum altitude 23:42:24 78° 255° (WSW) 863 2.1 -9.8°
Drops below altitude 10° 23:48:03 10° 169° (S) 2,458 4.6 -8.5°
Sets 23:50:30 0° 167° (SSE) 3,394 5.4 -8.0°
